| time (UTC) | temp F | wind direction | speed MPH | gust MPH | rain 1hr in | rain 24hr in | rain mn in | humidity % | barometer mb |
| 20260903233105 | 96 | 126 | 4.0 | 14.0 | 0.00 | 0.00 | 0.00 | 49 | 1009.4 |
| 20260903232552 | 95 | 127 | 6.0 | 15.0 | 0.00 | 0.00 | 0.00 | 49 | 1009.4 |
| 20260903232053 | 96 | 39 | 5.0 | 15.0 | 0.00 | 0.00 | 0.00 | 49 | 1009.4 |
| 20260903231558 | 96 | 85 | 5.0 | 14.0 | 0.00 | 0.00 | 0.00 | 48 | 1009.3 |
| 20260903231056 | 96 | 90 | 3.0 | 12.0 | 0.00 | 0.00 | 0.00 | 48 | 1009.2 |
| 20260903230553 | 96 | 90 | 4.0 | 13.0 | 0.00 | 0.00 | 0.00 | 48 | 1009.1 |
| 20260903230105 | 96 | 134 | 3.0 | 13.0 | 0.00 | 0.00 | 0.00 | 48 | 1009.2 |
| 20260903225553 | 96 | 98 | 5.0 | 13.0 | 0.00 | 0.00 | 0.00 | 47 | 1009.1 |
| 20260903225053 | 96 | 62 | 6.0 | 13.0 | 0.00 | 0.00 | 0.00 | 48 | 1009.1 |
| 20260903224557 | 96 | 77 | 5.0 | 13.0 | 0.00 | 0.00 | 0.00 | 48 | 1009.0 |
| 20260903224057 | 96 | 131 | 6.0 | 15.0 | 0.00 | 0.00 | 0.00 | 47 | 1009.1 |
| 20260903223556 | 96 | 90 | 6.0 | 16.0 | 0.00 | 0.00 | 0.00 | 47 | 1009.1 |
| 20260903223059 | 97 | 55 | 6.0 | 16.0 | 0.00 | 0.00 | 0.00 | 47 | 1009.1 |
| 20260903222551 | 98 | 158 | 7.0 | 16.0 | 0.00 | 0.00 | 0.00 | 46 | 1009.1 |
| 20260903222053 | 98 | 36 | 6.0 | 15.0 | 0.00 | 0.00 | 0.00 | 45 | 1009.1 |
| 20260903221604 | 99 | 68 | 6.0 | 15.0 | 0.00 | 0.00 | 0.00 | 45 | 1009.1 |
| 20260903221052 | 100 | 78 | 6.0 | 15.0 | 0.00 | 0.00 | 0.00 | 43 | 1009.2 |
| 20260903220556 | 102 | 165 | 7.0 | 13.0 | 0.00 | 0.00 | 0.00 | 42 | 1009.2 |
| 20260903220059 | 102 | 96 | 4.0 | 10.0 | 0.00 | 0.00 | 0.00 | 40 | 1009.1 |
| 20260903215553 | 102 | 105 | 2.0 | 7.0 | 0.00 | 0.00 | 0.00 | 38 | 1009.0 |
| 20260903215053 | 102 | 61 | 2.0 | 7.0 | 0.00 | 0.00 | 0.00 | 37 | 1009.1 |
| 20260903214611 | 102 | 126 | 1.0 | 7.0 | 0.00 | 0.00 | 0.00 | 40 | 1009.1 |
| 20260903214052 | 101 | 197 | 2.0 | 9.0 | 0.00 | 0.00 | 0.00 | 40 | 1009.2 |
| 20260903213552 | 102 | 198 | 3.0 | 9.0 | 0.00 | 0.00 | 0.00 | 40 | 1009.2 |
| 20260903213102 | 102 | 76 | 2.0 | 7.0 | 0.00 | 0.00 | 0.00 | 40 | 1009.3 |
| 20260903212552 | 102 | 130 | 3.0 | 7.0 | 0.00 | 0.00 | 0.00 | 41 | 1009.3 |
| 20260903212053 | 102 | 132 | 2.0 | 7.0 | 0.00 | 0.00 | 0.00 | 41 | 1009.4 |
| 20260903211608 | 102 | 96 | 2.0 | 8.0 | 0.00 | 0.00 | 0.00 | 42 | 1009.4 |
| 20260903211051 | 102 | 117 | 3.0 | 8.0 | 0.00 | 0.00 | 0.00 | 41 | 1009.5 |
| 20260903210553 | 102 | 211 | 2.0 | 8.0 | 0.00 | 0.00 | 0.00 | 41 | 1009.7 |
| 20260903210056 | 102 | 144 | 3.0 | 10.0 | 0.00 | 0.00 | 0.00 | 44 | 1009.7 |
| 20260903205552 | 102 | 213 | 3.0 | 10.0 | 0.00 | 0.00 | 0.00 | 43 | 1009.7 |
| 20260903205052 | 102 | 184 | 2.0 | 9.0 | 0.00 | 0.00 | 0.00 | 42 | 1009.9 |
| 20260903204604 | 102 | 216 | 3.0 | 9.0 | 0.00 | 0.00 | 0.00 | 44 | 1009.9 |
| 20260903204053 | 102 | 144 | 3.0 | 9.0 | 0.00 | 0.00 | 0.00 | 43 | 1009.9 |
| 20260903203552 | 102 | 167 | 2.0 | 8.0 | 0.00 | 0.00 | 0.00 | 42 | 1010.0 |
| 20260903203103 | 101 | 157 | 2.0 | 8.0 | 0.00 | 0.00 | 0.00 | 44 | 1010.0 |
| 20260903202552 | 101 | 119 | 1.0 | 7.0 | 0.00 | 0.00 | 0.00 | 44 | 1010.1 |
| 20260903202053 | 100 | 0 | 1.0 | 7.0 | 0.00 | 0.00 | 0.00 | 45 | 1010.2 |
| 20260903201609 | 100 | 0 | 3.0 | 11.0 | 0.00 | 0.00 | 0.00 | 44 | 1010.2 |
| 20260903201056 | 100 | 118 | 1.0 | 11.0 | 0.00 | 0.00 | 0.00 | 45 | 1010.3 |
| 20260903200554 | 100 | 92 | 4.0 | 11.0 | 0.00 | 0.00 | 0.00 | 44 | 1010.3 |
| 20260903200104 | 100 | 45 | 3.0 | 11.0 | 0.00 | 0.00 | 0.00 | 46 | 1010.4 |
| 20260903195553 | 99 | 132 | 1.0 | 10.0 | 0.00 | 0.00 | 0.00 | 45 | 1010.4 |
| 20260903195052 | 99 | 85 | 2.0 | 11.0 | 0.00 | 0.00 | 0.00 | 45 | 1010.5 |
| 20260903194601 | 98 | 248 | 5.0 | 11.0 | 0.00 | 0.00 | 0.00 | 47 | 1010.5 |
| 20260903194052 | 99 | 193 | 5.0 | 10.0 | 0.00 | 0.00 | 0.00 | 45 | 1010.6 |
| 20260903193556 | 99 | 229 | 4.0 | 10.0 | 0.00 | 0.00 | 0.00 | 45 | 1010.6 |
| 20260903193059 | 99 | 167 | 4.0 | 10.0 | 0.00 | 0.00 | 0.00 | 46 | 1010.7 |
| 20260903192555 | 99 | 76 | 2.0 | 10.0 | 0.00 | 0.00 | 0.00 | 45 | 1010.8 |
| 20260903192052 | 99 | 194 | 3.0 | 10.0 | 0.00 | 0.00 | 0.00 | 47 | 1010.9 |
| 20260903191602 | 98 | 102 | 3.0 | 11.0 | 0.00 | 0.00 | 0.00 | 48 | 1010.9 |
| 20260903191051 | 98 | 0 | 3.0 | 11.0 | 0.00 | 0.00 | 0.00 | 48 | 1011.1 |
| 20260903190552 | 98 | 242 | 5.0 | 11.0 | 0.00 | 0.00 | 0.00 | 49 | 1011.2 |
| 20260903190106 | 98 | 141 | 2.0 | 10.0 | 0.00 | 0.00 | 0.00 | 49 | 1011.2 |
| 20260903185552 | 98 | 206 | 4.0 | 11.0 | 0.00 | 0.00 | 0.00 | 48 | 1011.4 |
| 20260903185052 | 97 | 184 | 3.0 | 11.0 | 0.00 | 0.00 | 0.00 | 49 | 1011.5 |
| 20260903184601 | 97 | 213 | 5.0 | 10.0 | 0.00 | 0.00 | 0.00 | 49 | 1011.6 |
| 20260903184053 | 97 | 89 | 3.0 | 8.0 | 0.00 | 0.00 | 0.00 | 49 | 1011.7 |
| 20260903183549 | 97 | 0 | 3.0 | 10.0 | 0.00 | 0.00 | 0.00 | 50 | 1011.9 |
| 20260903183100 | 96 | 143 | 3.0 | 10.0 | 0.00 | 0.00 | 0.00 | 52 | 1011.9 |
| 20260903182553 | 96 | 206 | 3.0 | 11.0 | 0.00 | 0.00 | 0.00 | 51 | 1011.9 |
| 20260903182052 | 96 | 210 | 4.0 | 12.0 | 0.00 | 0.00 | 0.00 | 53 | 1011.9 |
| 20260903181603 | 95 | 198 | 5.0 | 12.0 | 0.00 | 0.00 | 0.00 | 53 | 1012.0 |
| 20260903181052 | 95 | 207 | 2.0 | 10.0 | 0.00 | 0.00 | 0.00 | 54 | 1012.1 |
| 20260903180553 | 95 | 84 | 4.0 | 10.0 | 0.00 | 0.00 | 0.00 | 54 | 1012.2 |
| 20260903175552 | 94 | 140 | 3.0 | 10.0 | 0.00 | 0.00 | 0.00 | 57 | 1012.2 |
| 20260903175057 | 93 | 166 | 3.0 | 11.0 | 0.00 | 0.00 | 0.00 | 57 | 1012.4 |
| 20260903174607 | 93 | 190 | 2.0 | 13.0 | 0.00 | 0.00 | 0.00 | 57 | 1012.4 |
| 20260903174051 | 93 | 205 | 7.0 | 13.0 | 0.00 | 0.00 | 0.00 | 56 | 1012.4 |
| 20260903173552 | 93 | 182 | 4.0 | 13.0 | 0.00 | 0.00 | 0.00 | 57 | 1012.4 |
| 20260903173101 | 93 | 171 | 3.0 | 13.0 | 0.00 | 0.00 | 0.00 | 60 | 1012.6 |
| 20260903172549 | 92 | 238 | 5.0 | 10.0 | 0.00 | 0.00 | 0.00 | 61 | 1012.7 |
| 20260903172053 | 92 | 172 | 3.0 | 11.0 | 0.00 | 0.00 | 0.00 | 63 | 1012.8 |
| 20260903171606 | 91 | 189 | 4.0 | 11.0 | 0.00 | 0.00 | 0.00 | 61 | 1012.8 |
| 20260903171053 | 91 | 198 | 3.0 | 14.0 | 0.00 | 0.00 | 0.00 | 62 | 1012.9 |
| 20260903170552 | 90 | 210 | 3.0 | 14.0 | 0.00 | 0.00 | 0.00 | 65 | 1012.9 |
| 20260903170106 | 90 | 257 | 4.0 | 12.0 | 0.00 | 0.00 | 0.00 | 65 | 1013.1 |
| 20260903165553 | 89 | 229 | 6.0 | 12.0 | 0.00 | 0.00 | 0.00 | 64 | 1013.1 |
| 20260903165049 | 89 | 270 | 7.0 | 14.0 | 0.00 | 0.00 | 0.00 | 65 | 1013.1 |
| 20260903164602 | 89 | 244 | 5.0 | 14.0 | 0.00 | 0.00 | 0.00 | 65 | 1013.2 |
| 20260903164050 | 89 | 236 | 7.0 | 14.0 | 0.00 | 0.00 | 0.00 | 65 | 1013.2 |
| 20260903163554 | 89 | 219 | 5.0 | 10.0 | 0.00 | 0.00 | 0.00 | 66 | 1013.2 |
| 20260903163100 | 89 | 198 | 3.0 | 10.0 | 0.00 | 0.00 | 0.00 | 69 | 1013.3 |
| 20260903162555 | 88 | 234 | 5.0 | 10.0 | 0.00 | 0.00 | 0.00 | 68 | 1013.3 |
| 20260903162052 | 88 | 203 | 4.0 | 10.0 | 0.00 | 0.00 | 0.00 | 70 | 1013.3 |
| 20260903161605 | 87 | 221 | 5.0 | 10.0 | 0.00 | 0.00 | 0.00 | 70 | 1013.3 |
| 20260903161052 | 87 | 199 | 5.0 | 12.0 | 0.00 | 0.00 | 0.00 | 71 | 1013.3 |
| 20260903160552 | 86 | 225 | 7.0 | 12.0 | 0.00 | 0.00 | 0.00 | 71 | 1013.3 |
| 20260903155553 | 86 | 207 | 6.0 | 13.0 | 0.00 | 0.00 | 0.00 | 73 | 1013.3 |
| 20260903155052 | 86 | 161 | 6.0 | 13.0 | 0.00 | 0.00 | 0.00 | 74 | 1013.2 |
| 20260903154602 | 85 | 248 | 7.0 | 12.0 | 0.00 | 0.00 | 0.00 | 73 | 1013.3 |
| 20260903154050 | 85 | 222 | 4.0 | 11.0 | 0.00 | 0.00 | 0.00 | 75 | 1013.3 |
| 20260903153549 | 85 | 178 | 5.0 | 12.0 | 0.00 | 0.00 | 0.00 | 75 | 1013.3 |
| 20260903153112 | 85 | 216 | 5.0 | 12.0 | 0.00 | 0.00 | 0.00 | 76 | 1013.2 |
| 20260903152554 | 84 | 220 | 5.0 | 13.0 | 0.00 | 0.00 | 0.00 | 77 | 1013.3 |
| 20260903152051 | 84 | 232 | 6.0 | 15.0 | 0.00 | 0.00 | 0.00 | 77 | 1013.2 |
| 20260903151612 | 84 | 246 | 3.0 | 15.0 | 0.00 | 0.00 | 0.00 | 78 | 1013.2 |
| 20260903151052 | 84 | 207 | 5.0 | 10.0 | 0.00 | 0.00 | 0.00 | 78 | 1013.2 |
| 20260903150553 | 83 | 228 | 4.0 | 10.0 | 0.00 | 0.00 | 0.00 | 79 | 1013.1 |
| 20260903150112 | 83 | 215 | 4.0 | 13.0 | 0.00 | 0.00 | 0.00 | 79 | 1013.1 |
| 20260903145553 | 83 | 227 | 7.0 | 13.0 | 0.00 | 0.00 | 0.00 | 80 | 1013.1 |
| 20260903145052 | 82 | 243 | 7.0 | 13.0 | 0.00 | 0.00 | 0.00 | 80 | 1013.2 |
| 20260903144604 | 82 | 232 | 5.0 | 14.0 | 0.00 | 0.00 | 0.00 | 81 | 1013.2 |
| 20260903144052 | 82 | 205 | 6.0 | 14.0 | 0.00 | 0.00 | 0.00 | 81 | 1013.2 |
| 20260903143553 | 82 | 238 | 7.0 | 17.0 | 0.00 | 0.00 | 0.00 | 81 | 1013.2 |
| 20260903143107 | 82 | 210 | 8.0 | 17.0 | 0.00 | 0.00 | 0.00 | 81 | 1013.2 |
| 20260903142549 | 82 | 226 | 6.0 | 16.0 | 0.00 | 0.00 | 0.00 | 81 | 1013.2 |
| 20260903142053 | 81 | 227 | 6.0 | 15.0 | 0.00 | 0.00 | 0.00 | 82 | 1013.2 |
| 20260903141558 | 81 | 235 | 7.0 | 15.0 | 0.00 | 0.00 | 0.00 | 82 | 1013.3 |
| 20260903141052 | 81 | 225 | 6.0 | 16.0 | 0.00 | 0.00 | 0.00 | 83 | 1013.3 |
| 20260903140553 | 81 | 250 | 7.0 | 16.0 | 0.00 | 0.00 | 0.00 | 83 | 1013.3 |
| 20260903135552 | 80 | 225 | 5.0 | 14.0 | 0.00 | 0.00 | 0.00 | 84 | 1013.3 |
| 20260903135052 | 80 | 220 | 5.0 | 15.0 | 0.00 | 0.00 | 0.00 | 84 | 1013.3 |
| 20260903134606 | 80 | 225 | 4.0 | 15.0 | 0.00 | 0.00 | 0.00 | 85 | 1013.4 |
| 20260903134051 | 80 | 227 | 8.0 | 15.0 | 0.00 | 0.00 | 0.00 | 85 | 1013.4 |
| 20260903133555 | 80 | 253 | 4.0 | 10.0 | 0.00 | 0.00 | 0.00 | 85 | 1013.4 |
| 20260903133103 | 80 | 179 | 3.0 | 8.0 | 0.00 | 0.00 | 0.00 | 86 | 1013.4 |
| 20260903132555 | 80 | 219 | 4.0 | 9.0 | 0.00 | 0.00 | 0.00 | 86 | 1013.4 |
| 20260903132053 | 80 | 241 | 4.0 | 9.0 | 0.00 | 0.00 | 0.00 | 86 | 1013.5 |
| 20260903131605 | 79 | 208 | 4.0 | 7.0 | 0.00 | 0.00 | 0.00 | 86 | 1013.4 |
| 20260903131056 | 79 | 213 | 3.0 | 8.0 | 0.00 | 0.00 | 0.00 | 86 | 1013.4 |
| 20260903130555 | 79 | 201 | 3.0 | 9.0 | 0.00 | 0.00 | 0.00 | 86 | 1013.4 |
| 20260903125554 | 79 | 209 | 3.0 | 8.0 | 0.00 | 0.00 | 0.00 | 86 | 1013.3 |
| 20260903125054 | 79 | 183 | 3.0 | 11.0 | 0.00 | 0.00 | 0.00 | 86 | 1013.2 |
| 20260903124556 | 79 | 236 | 5.0 | 11.0 | 0.00 | 0.00 | 0.00 | 86 | 1013.1 |
| 20260903124053 | 79 | 236 | 3.0 | 9.0 | 0.00 | 0.00 | 0.00 | 86 | 1013.1 |
| 20260903123555 | 79 | 219 | 3.0 | 9.0 | 0.00 | 0.00 | 0.00 | 86 | 1013.2 |
| 20260903123105 | 79 | 222 | 4.0 | 9.0 | 0.00 | 0.00 | 0.00 | 86 | 1013.1 |
| 20260903122557 | 79 | 210 | 4.0 | 13.0 | 0.00 | 0.00 | 0.00 | 86 | 1013.0 |
| 20260903122056 | 79 | 204 | 5.0 | 13.0 | 0.00 | 0.00 | 0.00 | 86 | 1013.0 |
| 20260903121603 | 79 | 226 | 4.0 | 9.0 | 0.00 | 0.00 | 0.00 | 86 | 1013.0 |
| 20260903121054 | 79 | 205 | 5.0 | 10.0 | 0.00 | 0.00 | 0.00 | 86 | 1013.0 |
| 20260903120554 | 79 | 181 | 3.0 | 10.0 | 0.00 | 0.00 | 0.00 | 86 | 1012.9 |
| 20260903120104 | 79 | 226 | 3.0 | 13.0 | 0.00 | 0.00 | 0.00 | 86 | 1012.9 |
| 20260903115553 | 79 | 175 | 5.0 | 13.0 | 0.00 | 0.00 | 0.00 | 86 | 1012.8 |
| 20260903115055 | 79 | 206 | 6.0 | 14.0 | 0.00 | 0.00 | 0.00 | 86 | 1012.8 |
| 20260903114604 | 79 | 215 | 5.0 | 14.0 | 0.00 | 0.00 | 0.00 | 86 | 1012.7 |
| 20260903114053 | 79 | 215 | 5.0 | 12.0 | 0.00 | 0.00 | 0.00 | 86 | 1012.8 |
| 20260903113555 | 79 | 229 | 3.0 | 12.0 | 0.00 | 0.00 | 0.00 | 86 | 1012.7 |
| 20260903113102 | 79 | 183 | 6.0 | 13.0 | 0.00 | 0.00 | 0.00 | 86 | 1012.7 |
| 20260903112555 | 79 | 229 | 4.0 | 14.0 | 0.00 | 0.00 | 0.00 | 86 | 1012.7 |
| 20260903112055 | 79 | 213 | 5.0 | 14.0 | 0.00 | 0.00 | 0.00 | 87 | 1012.6 |
| 20260903111608 | 79 | 209 | 5.0 | 12.0 | 0.00 | 0.00 | 0.00 | 87 | 1012.4 |
| 20260903111054 | 79 | 198 | 5.0 | 12.0 | 0.00 | 0.00 | 0.00 | 87 | 1012.5 |
| 20260903110554 | 79 | 224 | 5.0 | 12.0 | 0.00 | 0.00 | 0.00 | 87 | 1012.4 |
| 20260903110100 | 79 | 221 | 5.0 | 12.0 | 0.00 | 0.00 | 0.00 | 87 | 1012.5 |
| 20260903105554 | 79 | 203 | 4.0 | 12.0 | 0.00 | 0.00 | 0.00 | 87 | 1012.5 |
| 20260903105054 | 79 | 210 | 5.0 | 12.0 | 0.00 | 0.00 | 0.00 | 87 | 1012.5 |
| 20260903104623 | 79 | 233 | 5.0 | 12.0 | 0.00 | 0.00 | 0.00 | 87 | 1012.5 |
| 20260903104056 | 79 | 229 | 6.0 | 13.0 | 0.00 | 0.00 | 0.00 | 87 | 1012.6 |
| 20260903103552 | 79 | 185 | 4.0 | 13.0 | 0.00 | 0.00 | 0.00 | 87 | 1012.5 |
| 20260903103106 | 79 | 238 | 4.0 | 13.0 | 0.00 | 0.00 | 0.00 | 87 | 1012.5 |
| 20260903102555 | 79 | 233 | 5.0 | 13.0 | 0.00 | 0.00 | 0.00 | 87 | 1012.6 |
| 20260903102054 | 79 | 187 | 5.0 | 12.0 | 0.00 | 0.00 | 0.00 | 87 | 1012.5 |
| 20260903101600 | 79 | 205 | 3.0 | 11.0 | 0.00 | 0.00 | 0.00 | 87 | 1012.6 |
| 20260903101055 | 79 | 198 | 5.0 | 12.0 | 0.00 | 0.00 | 0.00 | 88 | 1012.5 |
| 20260903100553 | 79 | 214 | 4.0 | 12.0 | 0.00 | 0.00 | 0.00 | 88 | 1012.6 |
| 20260903100104 | 79 | 202 | 3.0 | 9.0 | 0.00 | 0.00 | 0.00 | 88 | 1012.7 |
| 20260903095552 | 79 | 205 | 3.0 | 10.0 | 0.00 | 0.00 | 0.00 | 88 | 1012.7 |
| 20260903095056 | 79 | 199 | 3.0 | 10.0 | 0.00 | 0.00 | 0.00 | 88 | 1012.5 |
| 20260903094606 | 79 | 200 | 3.0 | 9.0 | 0.00 | 0.00 | 0.00 | 88 | 1012.6 |
| 20260903094053 | 79 | 208 | 4.0 | 11.0 | 0.00 | 0.00 | 0.00 | 88 | 1012.4 |
| 20260903093555 | 79 | 184 | 4.0 | 12.0 | 0.00 | 0.00 | 0.00 | 88 | 1012.5 |
| 20260903093109 | 79 | 204 | 5.0 | 12.0 | 0.00 | 0.00 | 0.00 | 88 | 1012.5 |
| 20260903092552 | 79 | 159 | 4.0 | 11.0 | 0.00 | 0.00 | 0.00 | 87 | 1012.6 |
| 20260903092052 | 79 | 203 | 5.0 | 11.0 | 0.00 | 0.00 | 0.00 | 87 | 1012.6 |
| 20260903091605 | 79 | 213 | 4.0 | 12.0 | 0.00 | 0.00 | 0.00 | 87 | 1012.5 |
| 20260903091053 | 80 | 196 | 4.0 | 13.0 | 0.00 | 0.00 | 0.00 | 87 | 1012.4 |
| 20260903090557 | 80 | 202 | 6.0 | 13.0 | 0.00 | 0.00 | 0.00 | 87 | 1012.6 |
| 20260903090058 | 80 | 198 | 3.0 | 11.0 | 0.00 | 0.00 | 0.00 | 87 | 1012.6 |
| 20260903085552 | 80 | 168 | 3.0 | 11.0 | 0.00 | 0.00 | 0.00 | 87 | 1012.7 |
| 20260903085052 | 80 | 219 | 3.0 | 10.0 | 0.00 | 0.00 | 0.00 | 87 | 1012.7 |
| 20260903084600 | 80 | 198 | 2.0 | 10.0 | 0.00 | 0.00 | 0.00 | 87 | 1012.7 |
| 20260903084053 | 80 | 174 | 5.0 | 10.0 | 0.00 | 0.00 | 0.00 | 87 | 1012.7 |
| 20260903083556 | 80 | 159 | 1.0 | 8.0 | 0.00 | 0.00 | 0.00 | 87 | 1012.7 |
| 20260903083104 | 80 | 177 | 2.0 | 8.0 | 0.00 | 0.00 | 0.00 | 87 | 1012.8 |
| 20260903082553 | 80 | 204 | 1.0 | 7.0 | 0.00 | 0.00 | 0.00 | 86 | 1012.7 |
| 20260903082052 | 80 | 186 | 3.0 | 7.0 | 0.00 | 0.00 | 0.00 | 86 | 1012.8 |
| 20260903081619 | 80 | 186 | 1.0 | 11.0 | 0.00 | 0.00 | 0.00 | 86 | 1012.8 |
| 20260903081053 | 80 | 0 | 2.0 | 11.0 | 0.00 | 0.00 | 0.00 | 86 | 1012.7 |
| 20260903080552 | 80 | 221 | 4.0 | 9.0 | 0.00 | 0.00 | 0.00 | 86 | 1012.7 |
| 20260903080109 | 80 | 157 | 1.0 | 7.0 | 0.00 | 0.00 | 0.00 | 86 | 1012.6 |
| 20260903075553 | 80 | 227 | 2.0 | 7.0 | 0.00 | 0.00 | 0.00 | 86 | 1012.7 |
| 20260903075054 | 80 | 209 | 2.0 | 7.0 | 0.00 | 0.00 | 0.00 | 85 | 1012.8 |
| 20260903074601 | 80 | 173 | 1.0 | 7.0 | 0.00 | 0.00 | 0.00 | 85 | 1012.8 |
| 20260903074054 | 80 | 158 | 2.0 | 7.0 | 0.00 | 0.00 | 0.00 | 85 | 1012.9 |
| 20260903073554 | 80 | 190 | 0.0 | 5.0 | 0.00 | 0.00 | 0.00 | 85 | 1012.8 |
| 20260903073058 | 80 | 0 | 0.0 | 5.0 | 0.00 | 0.00 | 0.00 | 84 | 1012.9 |
| 20260903072554 | 80 | 0 | 0.0 | 3.0 | 0.00 | 0.00 | 0.00 | 84 | 1012.8 |
| 20260903072054 | 80 | 0 | 0.0 | 5.0 | 0.00 | 0.00 | 0.00 | 84 | 1012.8 |
| 20260903071603 | 80 | 157 | 1.0 | 6.0 | 0.00 | 0.00 | 0.00 | 84 | 1012.7 |
| 20260903071053 | 80 | 0 | 0.0 | 6.0 | 0.00 | 0.00 | 0.00 | 83 | 1012.7 |
| 20260903070557 | 80 | 197 | 2.0 | 5.0 | 0.00 | 0.00 | 0.00 | 83 | 1012.7 |
| 20260903070100 | 80 | 184 | 1.0 | 7.0 | 0.00 | 0.00 | 0.00 | 83 | 1012.7 |
| 20260903065555 | 80 | 183 | 1.0 | 7.0 | 0.00 | 0.00 | 0.00 | 82 | 1012.7 |
| 20260903065055 | 81 | 0 | 1.0 | 7.0 | 0.00 | 0.00 | 0.00 | 82 | 1012.7 |
| 20260903064559 | 81 | 203 | 1.0 | 10.0 | 0.00 | 0.00 | 0.00 | 82 | 1013.0 |
| 20260903064054 | 81 | 0 | 2.0 | 10.0 | 0.00 | 0.00 | 0.00 | 82 | 1012.9 |
| 20260903063553 | 81 | 163 | 2.0 | 7.0 | 0.00 | 0.00 | 0.00 | 81 | 1012.9 |
| 20260903063107 | 81 | 207 | 3.0 | 8.0 | 0.00 | 0.00 | 0.00 | 81 | 1012.9 |
| 20260903062554 | 81 | 160 | 1.0 | 8.0 | 0.00 | 0.00 | 0.00 | 80 | 1012.9 |
| 20260903062059 | 81 | 172 | 1.0 | 7.0 | 0.00 | 0.00 | 0.00 | 80 | 1013.0 |
| 20260903061558 | 81 | 198 | 2.0 | 7.0 | 0.00 | 0.00 | 0.00 | 79 | 1013.0 |
| 20260903061053 | 82 | 142 | 1.0 | 9.0 | 0.00 | 0.00 | 0.00 | 79 | 1013.0 |
| 20260903060553 | 82 | 140 | 1.0 | 9.0 | 0.00 | 0.00 | 0.00 | 79 | 1013.0 |
| 20260903060108 | 82 | 145 | 2.0 | 9.0 | 0.00 | 0.00 | 0.00 | 78 | 1013.0 |
| 20260903055556 | 82 | 182 | 1.0 | 5.0 | 0.00 | 0.00 | 0.00 | 78 | 1013.0 |
| 20260903055056 | 82 | 171 | 0.0 | 8.0 | 0.00 | 0.00 | 0.00 | 78 | 1013.0 |
| 20260903054602 | 82 | 145 | 2.0 | 9.0 | 0.00 | 0.00 | 0.00 | 77 | 1013.1 |
| 20260903054054 | 82 | 158 | 3.0 | 9.0 | 0.00 | 0.00 | 0.00 | 77 | 1013.2 |
| 20260903053556 | 82 | 146 | 3.0 | 10.0 | 0.00 | 0.00 | 0.00 | 77 | 1013.2 |
| 20260903053101 | 83 | 175 | 4.0 | 10.0 | 0.00 | 0.00 | 0.00 | 77 | 1013.3 |
| 20260903052554 | 83 | 131 | 1.0 | 8.0 | 0.00 | 0.00 | 0.00 | 77 | 1013.2 |
| 20260903052051 | 83 | 128 | 1.0 | 9.0 | 0.00 | 0.00 | 0.00 | 77 | 1013.2 |
| 20260903051558 | 83 | 117 | 2.0 | 9.0 | 0.00 | 0.00 | 0.00 | 76 | 1013.0 |
| 20260903051055 | 83 | 146 | 3.0 | 9.0 | 0.00 | 0.00 | 0.00 | 76 | 1012.7 |
| 20260903050553 | 84 | 171 | 1.0 | 8.0 | 0.00 | 0.00 | 0.00 | 75 | 1012.8 |
| 20260903045554 | 84 | 156 | 1.0 | 7.0 | 0.00 | 0.00 | 0.00 | 74 | 1012.6 |
| 20260903045053 | 84 | 144 | 2.0 | 7.0 | 0.00 | 0.00 | 0.00 | 73 | 1012.6 |
| 20260903044557 | 84 | 198 | 2.0 | 8.0 | 0.00 | 0.00 | 0.00 | 73 | 1012.5 |
| 20260903044056 | 84 | 187 | 2.0 | 11.0 | 0.00 | 0.00 | 0.00 | 72 | 1012.4 |
| 20260903043553 | 85 | 180 | 3.0 | 11.0 | 0.00 | 0.00 | 0.00 | 72 | 1012.3 |
| 20260903043103 | 85 | 192 | 3.0 | 15.0 | 0.00 | 0.00 | 0.00 | 71 | 1012.3 |
| 20260903042553 | 85 | 152 | 4.0 | 16.0 | 0.00 | 0.00 | 0.00 | 71 | 1012.2 |
| 20260903042053 | 85 | 165 | 5.0 | 16.0 | 0.00 | 0.00 | 0.00 | 70 | 1012.2 |
| 20260903041601 | 85 | 176 | 5.0 | 14.0 | 0.00 | 0.00 | 0.00 | 70 | 1012.2 |
| 20260903041054 | 86 | 176 | 5.0 | 17.0 | 0.00 | 0.00 | 0.00 | 69 | 1012.3 |
| 20260903040554 | 86 | 162 | 6.0 | 17.0 | 0.00 | 0.00 | 0.00 | 69 | 1012.2 |
| 20260903040059 | 86 | 149 | 5.0 | 12.0 | 0.00 | 0.00 | 0.00 | 68 | 1012.2 |
| 20260903035552 | 87 | 150 | 4.0 | 11.0 | 0.00 | 0.00 | 0.00 | 67 | 1012.1 |
| 20260903035054 | 87 | 144 | 3.0 | 12.0 | 0.00 | 0.00 | 0.00 | 67 | 1012.1 |
| 20260903034604 | 87 | 170 | 4.0 | 12.0 | 0.00 | 0.00 | 0.00 | 66 | 1012.0 |
| 20260903034053 | 87 | 197 | 4.0 | 15.0 | 0.00 | 0.00 | 0.00 | 66 | 1012.0 |
| 20260903033553 | 88 | 165 | 4.0 | 15.0 | 0.00 | 0.00 | 0.00 | 66 | 1012.0 |
| 20260903033105 | 88 | 128 | 4.0 | 9.0 | 0.00 | 0.00 | 0.00 | 65 | 1012.0 |
| 20260903032553 | 88 | 161 | 2.0 | 13.0 | 0.00 | 0.00 | 0.00 | 65 | 1011.9 |
| 20260903032053 | 89 | 134 | 5.0 | 13.0 | 0.00 | 0.00 | 0.00 | 64 | 1011.8 |
| 20260903031558 | 89 | 137 | 4.0 | 10.0 | 0.00 | 0.00 | 0.00 | 63 | 1011.7 |
| 20260903031059 | 89 | 167 | 3.0 | 11.0 | 0.00 | 0.00 | 0.00 | 62 | 1011.6 |
| 20260903030552 | 89 | 200 | 4.0 | 11.0 | 0.00 | 0.00 | 0.00 | 61 | 1011.6 |
| 20260903030128 | 89 | 132 | 3.0 | 11.0 | 0.00 | 0.00 | 0.00 | 59 | 1011.4 |
| 20260903025555 | 89 | 153 | 2.0 | 10.0 | 0.00 | 0.00 | 0.00 | 57 | 1011.4 |
| 20260903025053 | 89 | 221 | 3.0 | 14.0 | 0.00 | 0.00 | 0.00 | 55 | 1011.3 |
| 20260903024556 | 89 | 209 | 5.0 | 14.0 | 0.00 | 0.00 | 0.00 | 54 | 1011.2 |
| 20260903024052 | 89 | 0 | 0.0 | 2.0 | 0.00 | 0.00 | 0.00 | 50 | 1011.0 |
| 20260903023557 | 90 | 0 | 0.0 | 2.0 | 0.00 | 0.00 | 0.00 | 50 | 1010.9 |
| 20260903023110 | 90 | 129 | 0.0 | 2.0 | 0.00 | 0.00 | 0.00 | 50 | 1010.9 |
| 20260903022554 | 90 | 0 | 0.0 | 2.0 | 0.00 | 0.00 | 0.00 | 50 | 1010.8 |
| 20260903022054 | 90 | 129 | 0.0 | 1.0 | 0.00 | 0.00 | 0.00 | 49 | 1010.7 |
| 20260903021602 | 91 | 0 | 0.0 | 1.0 | 0.00 | 0.00 | 0.00 | 49 | 1010.7 |
| 20260903021053 | 91 | 0 | 0.0 | 2.0 | 0.00 | 0.00 | 0.00 | 48 | 1010.4 |
| 20260903020558 | 91 | 129 | 0.0 | 2.0 | 0.00 | 0.00 | 0.00 | 48 | 1010.4 |
| 20260903020106 | 91 | 129 | 0.0 | 4.0 | 0.00 | 0.00 | 0.00 | 48 | 1010.5 |
| 20260903015554 | 92 | 0 | 0.0 | 4.0 | 0.00 | 0.00 | 0.00 | 48 | 1010.4 |
| 20260903015052 | 92 | 133 | 0.0 | 2.0 | 0.00 | 0.00 | 0.00 | 48 | 1010.3 |
| 20260903014618 | 92 | 0 | 0.0 | 2.0 | 0.00 | 0.00 | 0.00 | 48 | 1010.2 |
| 20260903014056 | 93 | 133 | 0.0 | 2.0 | 0.00 | 0.00 | 0.00 | 47 | 1010.2 |
| 20260903013553 | 93 | 0 | 0.0 | 2.0 | 0.00 | 0.00 | 0.00 | 47 | 1010.1 |
| 20260903013102 | 93 | 0 | 0.0 | 1.0 | 0.00 | 0.00 | 0.00 | 47 | 1010.2 |